Location: Marcé
(47.5801°N, 0.3280°W)
Time: 16:08:40
(UTC+01:00)

SR - Pass Details

Date: 09 December 2021
Orbit: 582 x 872 km, 66.7° (Epoch: 22 January)

Event Time Altitude Azimuth Distance (km) Brightness Sun altitude
Rises 06:45:38 0° 330° (NNW) 2,819 - -18.0°
Reaches altitude 10° 06:48:02 10° 341° (NNW) 1,927 - -17.6°
Exits shadow 06:48:43 14° 346° (NNW) 1,691 ? -17.5°
Maximum altitude 06:51:56 33° 46° (NE) 1,029 ? -16.9°
Drops below altitude 10° 06:56:00 10° 111° (ESE) 2,007 ? -16.3°
Sets 06:58:32 0° 121° (ESE) 2,955 ? -15.9°
